SCP
0 0 0 0 0 0 0 0 0 0 0 0 0 0 0 0 0 0 0 0 0 0 0 0 0 0 0 0 0 0 0 0 0 0 0 0 0 0 0 0 0 0 0 0
0 0 0 0 0 0 0 0 0 0 0 0 0 0 0 0 0 0 0 0 0 0 0 0 0 0 0 0 0 0 0 0 0 0 0 0 0 0 0 0 0 0 0 0
0 0 0 0 0 0 0 0 0 0 0 0 0 0 0 0 0 0 0 0 0 0 0 0 0 0 0 0 0 0 0 0 0 0 0 0 0 0 0 0 0 0 0 0
0 0 0 0 0 0 0 0 0 0 0 0 0 0 0 0 0 0 0 0 0 0 0 0 0 0 0 0 0 0 0 0 0 0 0 0 0 0 0 0 0 0 0 0
0 0 0 0 0 0 0 0 0 0 0 0 0 0 0 0 0 0 0 0 0 0 0 0 0 0 0 0 0 0 0 0 0 0 0 0 0 0 0 0 0 0 0 0
0 0 0 0 0 0 0 0 0 0 0 0 0 0 0 0 0 0 0 0 0 0 0 0 0 0 0 0 0 0 0 0 0 0 0 0 0 0 0 0 0 0 0 0
0 0 0 0 0 0 0 0 0 0 0 0 0 0 0 0 0 0 0 0 0 0 0 0 0 0 0 0 0 0 0 0 0 0 0 0 0 0 0 0 0 0 0 0
0 0 0 0 0 0 0 0 0 0 0 0 0 0 0 0 0 0 0 0 0 0 0 0 0 0 0 0 0 0 0 0 0 0 0 0 0 0 0 0 0 0 0 0
0 0 0 0 0 0 0 0 0 0 0 0 0 0 0 0 0 0 0 0 0 0 0 0 0 0 0 0 0 0 0 0 0 0 0 0 0 0 0 0 0 0 0 0
0 0 0 0 0 0 0 0 0 0 0 0 0 0 0 0 0 0 0 0 0 0 0 0 0 0 0 0 0 0 0 0 0 0 0 0 0 0 0 0 0 0 0 0
0 0 0 0 0 0 0 0 0 0 0 0 0 0 0 0 0 0 0 0 0 0 0 0 0 0 0 0 0 0 0 0 0 0 0 0 0 0 0 0 0 0 0 0
0 0 0 0 0 0 0 0 0 0 0 0 0 0 0 0 0 0 0 0 0 0 0 0 0 0 0 0 0 0 0 0 0 0 0 0 0 0 0 0 0 0 0 0
0 0 0 0 0 0 0 0 0 0 0 0 0 0 0 0 0 0 0 0 0 0 0 0 0 0 0 0 0 0 0 0 0 0 0 0 0 0 0 0 0 0 0 0
0 0 0 0 0 0 0 0 0 0 0 0 0 0 0 0 0 0 0 0 0 0 0 0 0 0 0 0 0 0 0 0 0 0 0 0 0 0 0 0 0 0 0 0
0 0 0 0 0 0 0 0 0 0 0 0 0 0 0 0 0 0 0 0 0 0 0 0 0 0 0 0 0 0 0 0 0 0 0 0 0 0 0 0 0 0 0 0
0 0 0 0 0 0 0 0 0 0 0 0 0 0 0 0 0 0 0 0 0 0 0 0 0 0 0 0 0 0 0 0 0 0 0 0 0 0 0 0 0 0 0 0
0 0 0 0 0 0 0 0 0 0 0 0 0 0 0 0 0 0 0 0 0 0 0 0 0 0 0 0 0 0 0 0 0 0 0 0 0 0 0 0 0 0 0 0
0 0 0 0 0 0 0 0 0 0 0 0 0 0 0 0 0 0 0 0 0 0 0 0 0 0 0 0 0 0 0 0 0 0 0 0 0 0 0 0 0 0 0 0
0 0 0 0 0 0 0 0 0 0 0 0 0 0 0 0 0 0 0 0 0 0 0 0 0 0 0 0 0 0 0 0 0 0 0 0 0 0 0 0 0 0 0 0
0 0 0 0 0 0 0 0 0 0 0 0 0 0 0 0 0 0 0 0 0 0 0 0 0 0 0 0 0 0 0 0 0 0 0 0 0 0 0 0 0 0 0 0
0 0 0 0 0 0 0 0 0 0 0 0 0 0 0 0 0 0 0 0 0 0 0 0 0 0 0 0 0 0 0 0 0 0 0 0 0 0 0 0 0 0 0 0
0 0 0 0 0 0 0 0 0 0 0 0 0 0 0 0 0 0 0 0 0 0 0 0 0 0 0 0 0 0 0 0 0 0 0 0 0 0 0 0 0 0 0 0
0 0 0 0 0 0 0 0 0 0 0 0 0 0 0 0 0 0 0 0 0 0 0 0 0 0 0 0 0 0 0 0 0 0 0 0 0 0 0 0 0 0 0 0
0 0 0 0 0 0 0 0 0 0 0 0 0 0 0 0 0 0 0 0 0 0 0 0 0 0 0 0 0 0 0 0 0 0 0 0 0 0 0 0 0 0 0 0
0 0 0 0 0 0 0 0 0 0 0 0 0 0 0 0 0 0 0 0 0 0 0 0 0 0 0 0 0 0 0 0 0 0 0 0 0 0 0 0 0 0 0 0
0 0 0 0 0 0 0 0 0 0 0 0 0 0 0 0 0 0 0 0 0 0 0 0 0 0 0 0 0 0 0 0 0 0 0 0 0 0 0 0 0 0 0 0
0 0 0 0 0 0 0 0 0 0 0 0 0 0 0 0 0 0 0 0 0 0 0 0 0 0 0 0 0 0 0 0 0 0 0 0 0 0 0 0 0 0 0 0
Wind_Speed
1 4 9 9 9 9 9 4 3 1 3 1 2 2 3 5 6 5 4 4 5 5 6 7 7 7 8 8 8 8 8 8 9 9 9 8 8 8 7 7 7 7 6 6
4 7 11 12 10 8 7 5 3 4 2 2 2 3 5 6 5 4 5 7 7 7 7 8 8 9 8 9 9 8 8 9 9 8 8 8 8 7 7 7 7 6 6 6
3 2 4 7 6 6 4 4 3 2 2 4 5 6 6 6 5 6 8 8 8 8 9 9 9 9 9 9 9 8 8 9 9 9 8 9 9 7 8 8 7 7 7 7
1 6 4 2 1 4 5 4 3 1 3 4 6 7 6 6 6 8 9 8 9 9 9 9 8 8 8 8 8 8 9 9 9 8 9 8 8 8 8 7 7 7 7 8
3 2 1 1 3 3 1 2 1 2 5 6 6 5 5 7 7 8 9 9 9 9 9 8 9 9 9 8 9 9 9 9 9 9 9 8 8 9 8 7 7 7 6 7
3 2 2 3 4 4 2 2 3 4 6 7 6 6 7 8 8 9 9 8 8 8 9 9 10 9 9 10 10 10 10 10 9 9 8 9 9 9 7 7 8 7 7 7
3 1 2 3 3 4 4 7 6 5 6 6 5 7 9 9 9 8 9 9 9 9 8 9 10 9 9 10 11 11 10 10 9 9 9 9 8 7 7 7 6 6 7 7
2 2 4 4 3 2 5 5 5 5 5 6 8 9 9 9 9 9 9 9 9 8 9 9 9 10 11 11 11 11 10 10 10 9 9 9 7 7 7 6 6 6 6 6
5 5 5 1 2 3 4 3 4 5 6 6 7 8 8 8 9 9 9 9 9 10 11 10 10 10 12 13 12 11 10 11 10 10 8 8 7 7 6 5 5 6 5 5
2 1 2 2 0 1 2 2 4 5 6 6 7 8 9 8 8 9 9 10 10 11 12 12 12 11 12 12 11 11 11 10 9 8 8 7 6 5 5 5 5 5 5 5
1 1 1 3 3 3 3 4 5 6 5 6 7 7 7 8 9 9 9 9 10 11 13 14 13 13 12 12 11 11 11 10 9 7 7 6 6 5 6 6 6 6 5 5
4 5 3 5 4 2 3 5 5 6 7 7 6 7 8 8 8 9 11 11 12 13 13 14 14 14 13 11 10 10 9 8 6 5 5 5 5 5 7 8 9 11 10 7
5 4 4 2 2 2 3 4 5 5 6 7 7 7 8 8 9 10 11 13 13 14 14 14 14 15 13 11 10 10 9 8 6 5 4 4 4 4 4 4 6 7 8 8
4 3 1 1 2 3 3 4 5 6 6 6 7 8 9 9 10 12 13 13 13 14 14 14 15 15 13 11 10 9 8 9 7 4 4 4 4 4 3 3 3 2 3 5
3 3 2 0 2 4 4 4 5 6 7 8 7 8 10 11 12 13 13 13 14 15 15 15 15 15 14 12 10 9 7 5 5 4 4 4 3 3 3 3 3 2 1 1
2 2 3 3 3 4 4 5 5 7 7 8 8 10 10 11 11 12 13 14 14 15 16 15 15 15 14 12 10 7 6 9 7 4 3 3 3 3 3 3 3 2 2 2
3 1 2 2 2 3 4 4 5 6 7 9 9 10 10 11 12 13 14 14 13 13 13 14 15 16 14 12 9 6 5 6 9 5 3 3 3 3 2 2 2 2 2 3
6 4 4 3 1 2 4 5 5 7 7 8 8 9 10 11 12 14 15 15 15 14 13 14 16 16 14 12 9 6 5 4 4 3 3 3 2 2 2 2 2 2 1 3
6 5 4 3 2 2 2 4 5 6 6 7 8 9 9 10 11 13 14 14 14 15 16 17 20 16 14 14 13 5 5 5 4 3 2 2 2 1 1 1 2 2 2 3
5 5 4 3 2 2 3 4 5 5 6 6 7 8 10 11 11 13 13 12 10 11 15 17 16 13 13 13 14 6 5 5 4 3 2 2 1 1 0 1 2 2 3 3
5 4 3 2 1 2 4 4 4 4 6 6 7 8 10 11 11 11 12 11 13 14 16 16 12 12 12 13 12 7 6 5 3 2 2 1 1 1 0 1 2 2 2 3
5 4 3 1 1 3 4 3 2 3 5 6 7 8 9 10 11 11 10 9 12 17 13 10 11 16 18 15 8 7 6 5 4 2 2 1 1 1 1 1 2 2 3 3
5 4 3 2 1 2 3 2 2 3 4 6 7 8 8 8 8 9 11 10 11 17 12 10 17 23 21 11 8 8 7 7 5 4 3 2 1 1 1 2 2 2 2 3
5 4 3 2 1 1 2 2 2 2 3 4 6 6 7 7 7 7 7 12 16 16 11 13 19 21 16 9 8 8 8 7 6 5 4 4 3 3 2 2 2 2 2 3
6 5 3 3 2 1 1 1 2 3 4 4 6 7 6 5 6 8 9 11 15 14 11 13 18 18 12 10 9 9 8 8 8 6 5 5 4 4 3 3 3 3 2 3
5 4 4 4 3 2 1 1 1 1 2 4 4 5 5 5 7 7 8 10 13 13 11 10 12 12 11 10 10 10 9 9 9 8 8 6 6 5 5 4 5 4 4 4
5 4 3 2 2 2 2 1 1 1 1 2 3 5 5 6 6 8 9 9 9 10 10 10 10 10 10 10 10 10 9 9 8 8 8 7 7 6 7 8 7 6 6 6
Wind_Direction
340 81 81 68 54 54 66 77 103 121 115 20 339 336 324 318 319 328 331 319 304 289 277 275 275 271 265 262 260 258 256 253 252 252 252 252 253 255 257 255 257 251 251 256
18 92 87 67 43 42 50 47 62 88 83 334 326 335 327 321 323 316 302 295 288 283 279 276 273 269 265 263 260 255 251 251 251 250 250 248 248 249 253 253 254 252 250 251
327 310 70 36 16 37 46 33 77 86 293 307 323 321 306 301 295 288 288 286 283 279 272 271 269 267 266 264 264 261 255 254 251 249 248 246 247 246 243 246 245 246 249 248
11 31 49 229 360 66 97 82 75 95 291 295 290 285 278 277 281 287 289 286 282 279 278 276 275 276 275 276 274 269 265 264 263 260 257 252 250 249 247 243 238 238 242 244
75 66 154 294 1 357 309 203 42 332 311 305 299 313 292 275 279 282 282 282 281 282 283 285 284 283 285 284 279 276 274 271 268 264 261 258 253 251 248 243 242 241 240 241
64 49 247 273 312 312 25 257 288 331 313 305 324 326 287 286 290 288 290 291 290 292 292 291 289 290 291 290 288 283 277 271 269 265 261 259 254 251 249 244 241 240 243 241
64 24 262 299 326 38 57 273 288 293 294 298 290 262 274 293 296 292 294 294 296 298 298 293 294 297 293 292 288 285 284 280 276 270 265 260 255 251 249 248 244 240 243 248
81 25 276 306 35 79 239 254 280 287 289 289 281 282 292 301 302 304 303 301 301 301 299 296 296 296 293 289 285 284 284 282 278 273 271 276 258 254 249 243 245 245 244 254
171 205 228 210 150 207 218 265 283 287 294 294 299 301 305 306 306 305 304 304 303 303 303 302 300 297 294 293 292 289 283 278 275 273 267 263 258 255 254 243 238 241 236 242
106 191 188 150 163 299 294 291 295 300 305 313 310 308 312 311 311 310 306 306 306 308 308 306 303 299 293 295 297 294 289 284 278 272 268 262 256 249 246 243 239 238 233 235
154 264 317 327 319 310 329 334 328 322 317 320 321 317 313 313 312 310 309 309 310 311 309 308 307 303 301 301 300 296 292 287 281 272 265 260 253 248 244 238 232 227 227 221
212 224 205 261 280 329 356 336 327 330 330 327 325 316 316 313 308 309 313 315 315 314 312 311 310 308 306 301 297 298 295 289 281 275 269 259 258 266 254 249 254 244 233 224
177 190 187 248 325 357 346 336 338 342 335 328 322 316 316 313 310 314 316 319 318 316 313 312 312 310 309 305 301 298 295 293 287 280 274 267 260 257 270 274 266 257 244 236
152 129 67 332 315 336 347 345 348 344 333 323 317 318 319 315 316 320 320 320 319 318 316 316 315 315 314 310 305 300 296 295 294 277 269 265 260 254 250 250 264 277 260 234
126 129 166 214 11 3 355 353 352 338 328 325 321 323 323 323 322 321 320 322 323 323 323 322 321 321 320 315 309 302 297 291 286 278 268 260 256 254 249 244 239 243 254 252
127 85 67 48 22 2 358 355 345 329 326 324 325 324 324 324 322 321 324 327 328 326 325 326 326 324 322 319 312 305 296 297 299 283 269 264 256 251 248 238 229 222 209 176
120 84 61 38 14 1 351 341 332 324 324 325 325 326 328 329 329 328 328 328 325 322 324 327 327 325 323 321 316 308 301 299 301 295 273 262 256 252 246 232 222 213 206 183
130 135 135 123 93 359 343 337 330 326 323 323 329 332 333 334 331 329 329 328 328 329 332 332 329 328 326 325 321 309 304 300 293 284 275 266 256 249 233 219 211 203 183 160
119 114 104 91 79 38 339 323 319 321 324 331 335 333 330 329 327 327 329 331 334 336 335 333 328 330 329 327 329 315 312 309 307 300 289 283 275 252 224 208 188 175 161 151
119 115 102 83 53 19 327 316 323 330 333 337 337 334 333 331 330 332 332 331 332 333 329 328 330 332 332 329 332 324 322 316 318 327 324 317 305 290 242 168 161 161 163 161
131 123 110 90 14 340 322 325 335 339 339 342 340 335 331 329 331 334 335 335 335 337 333 330 335 336 334 331 330 333 335 333 330 337 338 335 348 359 62 132 146 152 152 148
148 142 135 132 338 314 315 332 349 350 347 342 340 338 337 335 335 334 331 331 330 334 334 335 339 338 336 336 339 342 343 342 341 345 345 344 354 18 52 84 110 123 127 133
164 163 163 188 240 288 331 353 354 356 348 343 342 342 338 332 332 336 336 335 336 334 335 339 338 339 341 346 349 351 355 357 358 359 360 2 7 26 56 75 94 110 122 126
171 172 182 195 161 28 358 329 335 349 346 342 343 343 340 337 335 333 325 329 337 337 340 340 340 344 348 354 354 356 358 -0 2 4 8 13 23 38 51 63 81 100 118 128
175 173 168 148 136 186 247 303 0 360 353 348 342 342 342 339 334 331 333 337 342 345 345 345 347 350 357 358 359 360 1 3 5 7 14 17 21 31 37 46 64 79 89 100
174 172 170 168 169 178 170 106 37 343 348 348 338 337 339 340 339 339 340 342 346 348 351 351 353 356 359 360 1 2 3 3 8 12 15 17 20 26 34 48 63 67 67 69
165 151 142 137 148 149 127 115 108 341 342 349 337 334 341 345 347 347 348 349 351 353 353 354 356 359 360 2 3 5 6 7 8 12 15 20 25 32 38 48 55 58 61 62